{"data":{"norad_id":60093,"intl_designator":"2024-117C","name":"STARLINK-31239","alt_names":[],"object_type":"PAYLOAD","status":"ACTIVE","operator":null,"country":"US","launch_date":"2024-06-23","launch_site_code":"AFETR","launch_vehicle":null,"mission":null,"orbit_class":"UNKNOWN","rcs_meters":null,"size_class":null,"mass_kg":null,"dimensions":null,"purposes":["comms"],"wikipedia_slug":null,"has_3d_model":false,"image_url":null,"decayed_at":null,"tle_current":{"epoch":"2026-05-25T02:45:13.139424Z","epoch_age_seconds":58993,"freshness":"FRESH","line1":"1 60093U 24117C   26145.11473541 -.00000498  00000+0 -46958-5 0  9996","line2":"2 60093  53.1608  42.4116 0001231  81.3478 278.7662 15.30196812108585","mean_motion":15.30196812,"eccentricity":0.0001231,"inclination_deg":53.1608,"raan_deg":42.4116,"arg_perigee_deg":81.3478,"mean_anomaly_deg":278.7662,"bstar":-4.6958e-6,"rev_number":10858,"period_min":94.105541764781,"perigee_km":474.3809394177,"apogee_km":476.06823704072,"semimajor_km":6853.3615882292,"source":"CELESTRAK","updated_at":"2026-05-25T13:38:19.159999Z"}}}